When you browse on this site, cookies collect data to enhance your experience and personalize the content and advertising you see.
Visit our Privacy Policy to learn more. By continuing to use the site, you agree to this use of cookies and data.
  • In Spain
  • List of Countries
  • For 7 days
  • Water Temperature
  • Satellite Maps
  • Weather Map
  • Weather Widgets
  • user-avatar
    Login

    Hourly Weather Varna

    Today, 22 January, Tuesday

    Time Temperature Precipitation Wind Pressure Humidity
    00:00 -2°C° 0 mm 3 mps 751 mmHg 85%
    01:00 -2°C° 0 mm 2 mps 751 mmHg 85%
    02:00 -2°C° 0 mm 3 mps 751 mmHg 84%
    03:00 -2°C° 0 mm 3 mps 751 mmHg 85%
    04:00 -2°C° 0 mm 2 mps 751 mmHg 86%
    05:00 -2°C° 0 mm 2 mps 750 mmHg 87%
    06:00 -1°C° 0 mm 2 mps 750 mmHg 87%
    07:00 -1°C° 0 mm 3 mps 750 mmHg 87%
    08:00 -1°C° 0 mm 3 mps 750 mmHg 85%
    09:00 -1°C° 0 mm 4 mps 750 mmHg 83%
    10:00 0°C° 0 mm 4 mps 749 mmHg 81%
    11:00 +1°C° 0 mm 4 mps 749 mmHg 79%
    12:00 +1°C° 0 mm 4 mps 749 mmHg 80%
    13:00 +1°C° 0 mm 4 mps 748 mmHg 81%
    14:00 +1°C° 0 mm 5 mps 747 mmHg 81%
    15:00 +1°C° 0 mm 5 mps 747 mmHg 84%
    16:00 +1°C° 0 mm 5 mps 746 mmHg 86%
    17:00 +1°C° 0 mm 5 mps 746 mmHg 89%
    18:00 +2°C° 0 mm 6 mps 745 mmHg 89%
    19:00 +2°C° 0 mm 6 mps 745 mmHg 90%
    20:00 +2°C° 0 mm 6 mps 744 mmHg 90%
    21:00 +2°C° 0 mm 6 mps 744 mmHg 91%
    22:00 +3°C° 0 mm 6 mps 743 mmHg 91%
    23:00 +3°C° 0 mm 6 mps 743 mmHg 91%

    Tomorrow, 23 January, Wednesday

    Time Temperature Precipitation Wind Pressure Humidity
    00:00 +3°C° 0 mm 6 mps 742 mmHg 92%
    01:00 +3°C° 0 mm 6 mps 742 mmHg 93%
    02:00 +3°C° 0 mm 6 mps 741 mmHg 94%
    03:00 +4°C° 0.8 mm 6 mps 740 mmHg 95%
    04:00 +4°C° 0.8 mm 6 mps 740 mmHg 96%
    05:00 +4°C° 0.8 mm 6 mps 739 mmHg 98%
    06:00 +4°C° 1.4 mm 6 mps 738 mmHg 97%
    07:00 +5°C° 1.4 mm 5 mps 738 mmHg 96%
    08:00 +5°C° 1.4 mm 5 mps 738 mmHg 95%
    09:00 +7°C° 0 mm 6 mps 738 mmHg 91%
    10:00 +8°C° 0 mm 6 mps 738 mmHg 86%
    11:00 +9°C° 0 mm 7 mps 738 mmHg 82%
    12:00 +10°C° 0 mm 6 mps 738 mmHg 77%
    13:00 +11°C° 0 mm 6 mps 737 mmHg 73%
    14:00 +11°C° 0 mm 6 mps 737 mmHg 68%
    15:00 +10°C° 0 mm 5 mps 737 mmHg 72%
    16:00 +9°C° 0 mm 5 mps 737 mmHg 77%
    17:00 +10°C° 0 mm 4 mps 737 mmHg 81%
    18:00 +8°C° 0 mm 4 mps 737 mmHg 84%
    19:00 +8°C° 0 mm 5 mps 737 mmHg 87%
    20:00 +7°C° 0 mm 6 mps 737 mmHg 90%
    21:00 +7°C° 0 mm 6 mps 737 mmHg 90%
    22:00 +7°C° 0 mm 6 mps 737 mmHg 90%
    23:00 +7°C° 0 mm 6 mps 737 mmHg 90%

    Day after tomorrow, 24 January, Thursday

    Time Temperature Precipitation Wind Pressure Humidity
    00:00 +7°C° 0.1 mm 5 mps 737 mmHg 91%
    01:00 +7°C° 0.1 mm 5 mps 737 mmHg 93%
    02:00 +7°C° 0.1 mm 5 mps 737 mmHg 94%
    03:00 +7°C° 0.1 mm 5 mps 736 mmHg 95%
    04:00 +7°C° 0.1 mm 5 mps 736 mmHg 96%
    05:00 +7°C° 0.1 mm 5 mps 735 mmHg 96%
    06:00 +6°C° 0 mm 5 mps 735 mmHg 96%
    07:00 +6°C° 0 mm 5 mps 735 mmHg 95%
    08:00 +6°C° 0 mm 5 mps 735 mmHg 95%
    09:00 +7°C° 0 mm 5 mps 734 mmHg 90%
    10:00 +7°C° 0 mm 5 mps 734 mmHg 85%
    11:00 +8°C° 0 mm 6 mps 734 mmHg 81%
    12:00 +8°C° 0.2 mm 5 mps 734 mmHg 82%
    13:00 +8°C° 0.2 mm 4 mps 733 mmHg 83%
    14:00 +9°C° 0.2 mm 3 mps 733 mmHg 85%
    15:00 +8°C° 0.3 mm 3 mps 733 mmHg 87%
    16:00 +8°C° 0.3 mm 3 mps 733 mmHg 89%
    17:00 +8°C° 0.3 mm 3 mps 732 mmHg 91%
    18:00 +7°C° 0 mm 3 mps 733 mmHg 92%
    19:00 +7°C° 0 mm 3 mps 733 mmHg 92%
    20:00 +6°C° 0 mm 4 mps 733 mmHg 92%
    21:00 +6°C° 0.2 mm 4 mps 733 mmHg 90%
    22:00 +6°C° 0.2 mm 4 mps 733 mmHg 88%
    23:00 +6°C° 0.2 mm 5 mps 734 mmHg 86%

    25 January, Friday

    Time Temperature Precipitation Wind Pressure Humidity
    00:00 +6°C° 0.1 mm 5 mps 734 mmHg 88%
    01:00 +6°C° 0.1 mm 5 mps 734 mmHg 90%
    02:00 +6°C° 0.1 mm 4 mps 734 mmHg 92%
    03:00 +7°C° 0.9 mm 5 mps 733 mmHg 92%
    04:00 +7°C° 0.9 mm 5 mps 733 mmHg 92%
    05:00 +7°C° 0.9 mm 6 mps 733 mmHg 91%
    06:00 +7°C° 0 mm 6 mps 734 mmHg 92%
    07:00 +7°C° 0 mm 5 mps 734 mmHg 92%
    08:00 +6°C° 0 mm 5 mps 735 mmHg 92%
    09:00 +7°C° 0 mm 5 mps 735 mmHg 88%
    10:00 +8°C° 0 mm 6 mps 735 mmHg 84%
    11:00 +9°C° 0 mm 7 mps 735 mmHg 80%
    12:00 +10°C° 0 mm 6 mps 735 mmHg 77%
    13:00 +10°C° 0 mm 6 mps 735 mmHg 74%
    14:00 +10°C° 0 mm 6 mps 735 mmHg 70%
    15:00 +9°C° 0.1 mm 6 mps 734 mmHg 76%
    16:00 +8°C° 0.1 mm 6 mps 734 mmHg 81%
    17:00 +7°C° 0.1 mm 6 mps 734 mmHg 87%
    18:00 +7°C° 0.3 mm 6 mps 734 mmHg 88%
    19:00 +7°C° 0.3 mm 6 mps 734 mmHg 89%
    20:00 +6°C° 0.3 mm 7 mps 733 mmHg 90%
    21:00 +6°C° 0.7 mm 7 mps 733 mmHg 90%
    22:00 +6°C° 0.7 mm 7 mps 733 mmHg 90%
    23:00 +6°C° 0.7 mm 7 mps 733 mmHg 91%

    26 January, Saturday

    Time Temperature Precipitation Wind Pressure Humidity
    00:00 +7°C° 0.1 mm 6 mps 733 mmHg 91%
    01:00 +7°C° 0.1 mm 5 mps 732 mmHg 91%
    02:00 +7°C° 0.1 mm 4 mps 732 mmHg 91%
    03:00 +8°C° 0 mm 3 mps 732 mmHg 92%
    04:00 +7°C° 0 mm 3 mps 732 mmHg 93%
    05:00 +7°C° 0 mm 2 mps 732 mmHg 94%
    06:00 +7°C° 0 mm 2 mps 732 mmHg 93%
    07:00 +6°C° 0 mm 2 mps 732 mmHg 92%
    08:00 +7°C° 0 mm 1 mps 733 mmHg 91%
    09:00 +7°C° 0 mm 2 mps 733 mmHg 86%
    10:00 +9°C° 0 mm 2 mps 733 mmHg 81%
    11:00 +10°C° 0 mm 2 mps 734 mmHg 77%
    12:00 +10°C° 0 mm 2 mps 733 mmHg 72%
    13:00 +12°C° 0 mm 2 mps 733 mmHg 68%
    14:00 +11°C° 0 mm 3 mps 733 mmHg 64%
    15:00 +10°C° 0 mm 3 mps 733 mmHg 69%
    16:00 +9°C° 0 mm 3 mps 733 mmHg 74%
    17:00 +8°C° 0 mm 3 mps 733 mmHg 79%
    18:00 +8°C° 0.8 mm 3 mps 733 mmHg 82%
    19:00 +8°C° 0.8 mm 3 mps 734 mmHg 86%
    20:00 +7°C° 0.8 mm 3 mps 734 mmHg 89%
    21:00 +7°C° 1.1 mm 3 mps 734 mmHg 90%
    22:00 +7°C° 1.1 mm 3 mps 734 mmHg 91%
    23:00 +7°C° 1.1 mm 3 mps 734 mmHg 92%

    27 January, Sunday

    Time Temperature Precipitation Wind Pressure Humidity
    00:00 +6°C° 0 mm 4 mps 734 mmHg 93%
    01:00 +5°C° 0 mm 4 mps 735 mmHg 94%
    02:00 +5°C° 0 mm 4 mps 735 mmHg 95%
    03:00 +5°C° 0 mm 4 mps 734 mmHg 95%
    04:00 +5°C° 0 mm 4 mps 734 mmHg 95%
    05:00 +4°C° 0 mm 4 mps 734 mmHg 95%
    06:00 +5°C° 0 mm 4 mps 735 mmHg 95%
    07:00 +5°C° 0 mm 5 mps 735 mmHg 95%
    08:00 +5°C° 0 mm 5 mps 735 mmHg 94%
    09:00 +5°C° 0 mm 5 mps 736 mmHg 92%
    10:00 +6°C° 0 mm 5 mps 736 mmHg 90%
    11:00 +6°C° 0 mm 5 mps 736 mmHg 88%
    12:00 +6°C° 0 mm 5 mps 736 mmHg 88%
    13:00 +6°C° 0 mm 5 mps 736 mmHg 88%
    14:00 +5°C° 0 mm 6 mps 737 mmHg 87%
    15:00 +5°C° 0.1 mm 6 mps 737 mmHg 88%
    16:00 +4°C° 0.1 mm 6 mps 737 mmHg 89%
    17:00 +4°C° 0.1 mm 6 mps 737 mmHg 90%
    18:00 +3°C° 0.1 mm 6 mps 738 mmHg 90%
    19:00 +3°C° 0.1 mm 6 mps 738 mmHg 90%
    20:00 +3°C° 0.1 mm 5 mps 739 mmHg 90%
    21:00 +3°C° 0.2 mm 6 mps 739 mmHg 89%
    22:00 +3°C° 0.2 mm 6 mps 740 mmHg 89%
    23:00 +2°C° 0.2 mm 6 mps 740 mmHg 88%
    Show more